Flag for U.S.A. Weather past 2 weeks in Salem, Oregon, U.S.A.

Now
73 °F

Sunny.


Feels Like: 77 °F
Forecast: 60 / 79 °F
Wind: 9 mph from West

Location: McNary Field

Current Time: Sep 21, 2014 at 7:31:12 PM

Latest Report: Sep 21, 2014 at 6:56 PM


Visibility: 10 mi

Pressure: 29.88 "Hg

Humidity: 51%

Dew point: 54 °F

Location of SalemLocation

Historic Weather in Salem — Graph

°F

Salem temperature yesterday

Maximum temperature yesterday: 95 °F (at 4:56 PM)
Minimum temperature yesterday: 59 °F (at 5:56 AM)
Average temperature yesterday: 75 °F

Past Weeks' High & Low Weather Summary

 TemperatureHumidityPressure
High95 °F (Sep 6, 5:56 PM)90% (Sep 19, 3:56 AM)30.17 "Hg (Sep 19, 3:56 AM)
Low48 °F (Sep 14, 6:56 AM)11% (Sep 6, 5:56 PM)29.68 "Hg (Sep 17, 4:56 PM)
Average68 °F52%29.90 "Hg
* Reported Sep 6 5:56 PM — Sep 21 5:56 PM, Salem, Weather by CustomWeather, © 2014

Note: Actual official high and low records may vary slightly from our data, if they occured in-between our weather recording intervals... More about our weather records

Advertising

Salem weather history for previous 24 hours

 ConditionsComfort  
Time TempWeatherWind HumidityBarometerVisibility
5:56 PM
Sep 21
77 °FSunny.10 mph45%29.86 "Hg10 mi
4:56 PM84 °FSunny.12 mph36%29.85 "Hg10 mi
3:56 PM85 °FSunny.5 mph34%29.84 "Hg10 mi
2:56 PM85 °FSunny.8 mph32%29.85 "Hg10 mi
1:56 PM83 °FSunny.6 mph36%29.86 "Hg10 mi
12:56 PM80 °FSunny.7 mph39%29.88 "Hg10 mi
11:56 AM76 °FSunny.6 mph48%29.90 "Hg10 mi
10:56 AM75 °FSunny.8 mph48%29.90 "Hg10 mi
9:56 AM70 °FSunny.10 mph57%29.90 "Hg10 mi
8:56 AM66 °FSunny.7 mph68%29.89 "Hg10 mi
7:56 AM60 °FClear.3 mph83%29.89 "Hg10 mi
6:56 AM58 °FClear.5 mph87%29.87 "Hg10 mi
5:56 AM59 °FClear.No wind84%29.85 "Hg10 mi
4:56 AM60 °FClear.5 mph83%29.85 "Hg10 mi
3:56 AM63 °FClear.5 mph75%29.84 "Hg10 mi
2:56 AM64 °FClear.10 mph75%29.83 "Hg10 mi
1:56 AM64 °FClear.6 mph75%29.83 "Hg10 mi
12:56 AM66 °FClear.5 mph65%29.82 "Hg10 mi
11:56 PM
Sep 20
67 °FClear.3 mph63%29.81 "Hg10 mi
10:56 PM70 °FClear.5 mph57%29.80 "Hg10 mi
9:56 PM73 °FClear.3 mph53%29.79 "Hg10 mi
8:56 PM76 °FClear.No wind47%29.78 "Hg10 mi
7:56 PM81 °FSunny.6 mph41%29.77 "Hg10 mi
Weather by CustomWeather, © 2014

See weather overviewHow to use our weather pages